Frederick, MD

8:10 AM EDT on October 20, 2019 (GMT -0400)
Frederick Municipal

Weather History for KFDK - August, 2019

Change the Weather History Date:

Thursday, August 29, 2019

  Actual Average (KHGR) Record (KHGR)
Temperature  
Mean Temperature 72 °F -  
Max Temperature 82 °F 79 °F 95 °F (2018)
Min Temperature 62 °F 61 °F 55 °F (2014)
Cooling Degree Days 7    
Growing Degree Days 22 (Base 50)    
Moisture  
Dew Point 58 °F    
Average Humidity 69    
Maximum Humidity 94    
Minimum Humidity 37    
Precipitation  
Precipitation 0.00 in - - ()
Sea Level Pressure  
Sea Level Pressure 30.02 in    
Wind  
Wind Speed 4 mph (WNW)    
Max Wind Speed 14 mph    
Max Gust Speed 21 mph    
Visibility 10 miles    
Events      
Averages and records for this station are not official NWS values.
T = Trace of Precipitation, MM = Missing Value Source: NWS Daily Summary

Daily Weather History Graph

Daily Weather History Graph

Search for Another Location

Airport or City:

Astronomy

Aug. 29, 2019 Rise Set
Actual Time 6:34 AM EDT 7:45 PM EDT
Civil Twilight 6:07 AM EDT 8:12 PM EDT
Nautical Twilight 5:34 AM EDT 8:45 PM EDT
Astronomical Twilight 4:59 AM EDT 9:20 PM EDT
Moon 5:18 AM EDT (8/29) 7:40 PM EDT (8/29)
Length of Visible Light 14h 05m
Length of Day
13h 10m
Waning Crescent, 1% of the Moon is Illuminated
Aug 29
Waning Crescent
Aug 30
New
Sep 5
First Quarter
Sep 14
Full
Sep 21
Last Quarter

Hourly Weather History & Observations

Time (EDT) Temp. Heat Index Dew Point Humidity Pressure Visibility Wind Dir Wind Speed Gust Speed Precip Events Conditions
12:00 AM - - - N/A% - - North - - N/A   Unknown
12:20 AM - - - N/A% - - North - - N/A   Unknown
1:00 AM - - - N/A% - - North - - N/A   Unknown
1:20 AM - - - N/A% - - North - - N/A   Unknown
1:40 AM - - - N/A% - - North - - N/A   Unknown
2:00 AM - - - N/A% - - North - - N/A   Unknown
2:20 AM - - - N/A% - - North - - N/A   Unknown
2:40 AM - - - N/A% - - North - - N/A   Unknown
3:20 AM - - - N/A% - - North - - N/A   Unknown
3:40 AM - - - N/A% - - North - - N/A   Unknown
4:40 AM - - - N/A% - - North - - N/A   Unknown
5:00 AM - - - N/A% - - North - - N/A   Unknown
5:20 AM - - - N/A% - - North - - N/A   Unknown
5:40 AM - - - N/A% - - North - - N/A   Unknown
6:00 AM - - - N/A% - - North - - N/A   Unknown
6:20 AM - - - N/A% - - North - - N/A   Unknown
6:40 AM - - - N/A% - - North - - N/A   Unknown
6:47 AM 62.6 °F - 53.6 °F 72% 29.98 in 10.0 mi Calm Calm - N/A   Clear
6:55 AM - - - N/A% - - North - - N/A   Unknown
7:47 AM 64.4 °F - 57.2 °F 77% 29.99 in 10.0 mi Calm Calm - N/A   Clear
8:47 AM 69.8 °F - 57.2 °F 64% 29.99 in 10.0 mi Calm Calm - N/A   Clear
9:47 AM 73.4 °F - 57.2 °F 57% 30.04 in 10.0 mi West 13.8 mph 20.7 mph N/A   Clear
10:47 AM 75.2 °F - 59.0 °F 57% 30.06 in 10.0 mi NW 8.1 mph - N/A   Clear
11:47 AM 77.0 °F - 57.2 °F 50% 30.06 in 10.0 mi WNW 8.1 mph - N/A   Scattered Clouds
12:47 PM 80.6 °F 80.3 °F 53.6 °F 39% 30.02 in 10.0 mi NW 11.5 mph - N/A   Scattered Clouds
1:47 PM 80.6 °F 80.8 °F 57.2 °F 45% 30.01 in 10.0 mi West 6.9 mph - N/A   Mostly Cloudy
2:47 PM 80.6 °F 80.5 °F 55.4 °F 42% 30.00 in 10.0 mi NW 12.7 mph 18.4 mph N/A   Mostly Cloudy
3:47 PM 80.6 °F 80.3 °F 53.6 °F 39% 29.99 in 10.0 mi NW 12.7 mph 19.6 mph N/A   Mostly Cloudy
4:50 PM 82.4 °F 81.4 °F 53.6 °F 37% 29.98 in 10.0 mi West 6.9 mph - N/A   Scattered Clouds
6:47 PM 80.6 °F 80.3 °F 53.6 °F 39% 29.99 in 10.0 mi West 4.6 mph - N/A   Clear
8:50 PM 66.2 °F - 62.6 °F 88% 30.01 in 10.0 mi Calm Calm - N/A   Clear
9:20 PM 64.4 °F - 62.6 °F 94% 30.02 in 10.0 mi Calm Calm - N/A   Clear
9:40 PM 64.4 °F - 60.8 °F 88% 30.02 in 10.0 mi Calm Calm - N/A   Clear
10:00 PM 62.6 °F - 60.8 °F 94% 30.03 in 10.0 mi Calm Calm - N/A   Clear
10:20 PM 62.6 °F - 60.8 °F 94% 30.03 in 10.0 mi Calm Calm - N/A   Clear
10:40 PM 62.6 °F - 60.8 °F 94% 30.04 in 10.0 mi Calm Calm - N/A   Clear
11:00 PM 62.6 °F - 60.8 °F 94% 30.05 in 10.0 mi Calm Calm - N/A   Clear
11:20 PM 62.6 °F - 60.8 °F 94% 30.04 in 10.0 mi Calm Calm - N/A   Clear
11:40 PM 62.6 °F - 60.8 °F 94% 30.04 in 10.0 mi Calm Calm - N/A   Clear